S51FO-6 Weather Reports


Display with metric or nautical units.
time (UTC)temp
F
wind
direction
speed
MPH
gust
MPH
rain 1hr
in
rain 24hr
in
rain mn
in
humidity
%
barometer
mb
20260507065944 48 0.0 0.0 0.00 2.71 0.07 87
20260507064944 47 0.0 0.0 0.00 2.72 0.07 87
20260507063944 47 0.0 0.0 0.00 2.72 0.07 87
20260507062944 47 0.0 0.0 0.00 2.74 0.07 87
20260507061944 47 0.0 0.0 0.00 2.74 0.07 87
20260507055944 47 0.0 0.0 0.00 2.75 0.07 87
20260507054944 46 0.0 0.0 0.00 2.75 0.07 87
20260507051946 46 0.0 0.0 0.00 2.76 0.07 87
20260507044947 46 0.0 0.0 0.00 2.77 0.07 87
20260507043946 46 0.0 0.0 0.00 2.77 0.07 87
20260507041947 46 0.0 0.0 0.00 2.78 0.07 87
20260507035946 46 0.0 0.0 0.00 2.78 0.07 87
20260507032946 47 0.0 0.0 0.00 2.77 0.06 87
20260507031948 47 0.0 0.0 0.01 2.77 0.06 87
20260507030947 47 0.0 0.0 0.01 2.77 0.06 87
20260507025953 46 0.0 0.0 0.01 2.77 0.06 87
20260507024948 46 0.0 0.0 0.01 2.78 0.06 87
20260507023948 46 0.0 0.0 0.01 2.78 0.06 87
20260507022946 46 0.0 0.0 0.01 2.78 0.06 87
20260507021946 46 0.0 0.0 0.00 2.76 0.04 87
20260507020946 46 0.0 0.0 0.00 2.76 0.04 87
20260507014950 46 0.0 0.0 0.00 2.76 0.04 87
20260507013954 46 0.0 0.0 0.00 2.76 0.04 87
20260507012947 46 0.0 0.0 0.00 2.76 0.04 87
20260507011946 46 0.0 0.0 0.01 2.76 0.04 87
20260507010946 46 0.0 0.0 0.02 2.76 0.04 87
20260507010204 46 0.0 0.0 0.04 2.76 0.04 87
20260507005952 46 0.0 0.0 0.04 2.76 0.04 87
20260507004948 46 0.0 0.0 0.07 2.76 0.04 87
20260507003947 46 0.0 0.0 0.10 2.76 0.04 87
20260507002946 46 0.0 0.0 0.13 2.76 0.04 87
20260507001946 46 0.0 0.0 0.17 2.75 0.03 87
20260507000950 46 0.0 0.0 0.21 2.74 0.02 87
20260507000214 46 0.0 0.0 0.24 2.73 0.00 87
20260506235951 46 0.0 0.0 0.24 2.73 0.00 87
20260506234946 45 0.0 0.0 0.27 2.71 2.71 87
20260506230952 43 0.0 0.0 0.31 2.54 2.54 87
20260506225947 43 0.0 0.0 0.30 2.49 2.49 87
20260506224948 43 0.0 0.0 0.29 2.43 2.44 87
20260506221948 43 0.0 0.0 0.28 2.28 2.28 87
20260506220946 45 0.0 0.0 0.29 2.23 2.23 87
20260506215949 45 0.0 0.0 0.31 2.19 2.19 87
20260506214946 45 0.0 0.0 0.32 2.14 2.14 87
20260506213946 45 0.0 0.0 0.32 2.10 2.10 87
20260506211944 45 0.0 0.0 0.31 1.99 1.99 87
20260506210949 45 0.0 0.0 0.31 1.93 1.93 87
20260506205944 45 0.0 0.0 0.30 1.88 1.88 87
20260506204944 44 0.0 0.0 0.30 1.82 1.82 87
20260506203944 44 0.0 0.0 0.31 1.77 1.77 87
20260506202944 44 0.0 0.0 0.29 1.72 1.72 87
20260506201944 44 0.0 0.0 0.25 1.68 1.68 87
20260506200944 44 0.0 0.0 0.21 1.62 1.62 87
20260506195944 44 0.0 0.0 0.19 1.57 1.57 87
20260506194944 44 0.0 0.0 0.16 1.52 1.52 87
20260506191944 48 0.0 0.0 0.16 1.42 1.42 87
20260506190944 48 0.0 0.0 0.18 1.40 1.40 87
20260506185944 48 0.0 0.0 0.17 1.38 1.38 87
20260506184946 48 0.0 0.0 0.16 1.36 1.36 87
20260506183944 48 0.0 0.0 0.16 1.33 1.33 88
20260506182944 48 0.0 0.0 0.16 1.30 1.30 87
20260506181944 48 0.0 0.0 0.15 1.26 1.26 88
20260506175944 48 0.0 0.0 0.11 1.22 1.20 87
20260506174944 48 0.0 0.0 0.09 1.21 1.19 87
20260506173944 48 0.0 0.0 0.08 1.20 1.16 87
20260506172944 48 0.0 0.0 0.04 1.16 1.13 87
20260506171944 48 0.0 0.0 0.02 1.15 1.11 87
20260506170944 48 0.0 0.0 0.02 1.16 1.11 87
20260506164944 48 0.0 0.0 0.00 1.16 1.09 87
20260506163944 48 0.0 0.0 0.00 1.16 1.08 87
20260506162944 48 0.0 0.0 0.00 1.18 1.08 87
20260506161944 48 0.0 0.0 0.00 1.18 1.08 87
20260506160944 48 0.0 0.0 0.00 1.18 1.08 87
20260506155944 48 0.0 0.0 0.03 1.19 1.08 87
20260506154944 48 0.0 0.0 0.04 1.19 1.08 87
20260506152944 48 0.0 0.0 0.05 1.20 1.08 87
20260506150944 48 0.0 0.0 0.09 1.19 1.08 87
20260506145944 48 0.0 0.0 0.11 1.16 1.05 87
20260506144944 48 0.0 0.0 0.13 1.16 1.04 87
20260506143944 48 0.0 0.0 0.16 1.16 1.04 87
20260506141944 48 0.0 0.0 0.19 1.13 1.01 87
20260506135944 48 0.0 0.0 0.17 1.07 0.94 87
20260506134944 47 0.0 0.0 0.16 1.04 0.91 87
20260506133944 47 0.0 0.0 0.16 1.00 0.88 87
20260506132944 47 0.0 0.0 0.16 0.98 0.85 87
20260506130944 47 0.0 0.0 0.14 0.92 0.79 87
20260506125944 47 0.0 0.0 0.14 0.89 0.76 87
20260506124944 47 0.0 0.0 0.15 0.87 0.74 87
20260506123944 47 0.0 0.0 0.15 0.84 0.71 87
20260506122947 47 0.0 0.0 0.16 0.82 0.69 87
20260506121944 47 0.0 0.0 0.16 0.80 0.67 87
20260506120944 47 0.0 0.0 0.16 0.77 0.64 87
20260506115953 47 0.0 0.0 0.17 0.75 0.62 87
20260506114944 46 0.0 0.0 0.16 0.72 0.59 87
20260506113944 46 0.0 0.0 0.17 0.69 0.56 87
20260506112944 46 0.0 0.0 0.16 0.66 0.53 87
20260506110944 46 0.0 0.0 0.16 0.60 0.47 87
20260506105944 46 0.0 0.0 0.14 0.57 0.44 87
20260506104946 46 0.0 0.0 0.13 0.55 0.42 87
20260506103951 46 0.0 0.0 0.11 0.52 0.39 87
20260506102950 46 0.0 0.0 0.08 0.49 0.36 87
20260506101944 46 0.0 0.0 0.06 0.47 0.34 87
20260506100944 46 0.0 0.0 0.04 0.44 0.31 87
20260506095944 46 0.0 0.0 0.02 0.43 0.30 87
20260506094944 45 0.0 0.0 0.01 0.42 0.28 87
20260506093944 45 0.0 0.0 0.02 0.41 0.27 87
20260506092944 45 0.0 0.0 0.04 0.41 0.27 87
20260506091944 45 0.0 0.0 0.06 0.42 0.27 87
20260506090944 45 0.0 0.0 0.08 0.43 0.27 87
20260506085944 45 0.0 0.0 0.11 0.44 0.27 87
20260506084944 44 0.0 0.0 0.13 0.43 0.27 87
20260506083944 44 0.0 0.0 0.14 0.41 0.25 87
20260506082944 44 0.0 0.0 0.13 0.39 0.23 87
20260506081944 44 0.0 0.0 0.12 0.37 0.21 87
20260506080944 45 0.0 0.0 0.09 0.35 0.19 87
20260506072944 45 0.0 0.0 0.03 0.25 0.09 87
20260506071944 45 0.0 0.0 0.03 0.25 0.09 87